Theta_e
316 316 316 316 316 317 317 317 317 318 318 318 319 319 319 319 320 319 319 319 320 320 320 320 320 320 320 320 321 321 319 319 318 316 316 323 330 339 338 349 347 347 361 332 329 328 326 329 328 333 335 339 339 336 339 339 337 335 327 327 322 322 322 324 322 323 327 325 328 329 331 329 327 330 333 337 334 334 336 334 335 336 338 342 343 345 344 346
316 316 316 316 316 316 317 317 317 317 318 318 318 318 319 319 319 319 319 319 319 319 319 319 320 320 320 320 320 320 319 317 316 317 317 325 341 341 346 345 350 355 357 326 323 323 322 325 327 329 331 333 342 334 337 332 338 327 327 324 322 324 327 328 328 330 326 324 330 332 332 330 329 331 331 331 329 332 330 332 337 334 337 341 343 343 343 344
316 316 316 316 316 316 316 317 317 317 317 317 318 318 318 318 318 319 319 319 319 319 319 319 319 319 320 320 320 320 319 317 317 316 322 339 338 343 345 349 349 355 330 325 324 324 323 325 327 328 331 333 335 330 333 329 334 330 325 322 322 328 327 329 330 328 330 330 329 329 330 330 329 332 331 331 329 331 328 329 333 332 333 338 340 342 341 343
315 315 316 316 315 316 316 317 317 317 317 317 318 318 318 318 318 318 319 319 319 319 319 318 319 319 319 319 320 320 318 317 314 319 324 346 344 341 346 347 350 350 328 326 326 326 329 329 328 329 330 331 332 333 327 329 329 331 325 319 326 330 326 329 331 332 330 333 332 330 330 327 329 331 330 331 328 328 330 334 333 333 336 338 340 340 340 341
315 315 315 316 315 316 316 316 316 316 317 317 318 318 317 318 318 318 318 318 319 319 318 319 319 319 319 319 319 320 316 309 311 322 334 357 353 345 345 346 350 331 325 324 325 327 330 328 328 329 330 328 328 330 327 329 332 330 326 327 329 330 326 329 330 330 330 332 327 325 326 326 334 332 332 330 326 326 330 334 336 336 338 339 339 340 341 340
315 315 315 315 315 316 316 316 316 317 317 317 317 317 317 318 318 317 318 318 318 318 318 318 319 319 320 319 319 319 315 300 322 320 354 352 353 348 346 347 350 326 323 322 321 325 328 327 328 325 327 327 325 322 328 328 334 322 326 328 331 330 326 330 331 330 332 328 327 325 333 332 327 331 332 331 328 330 336 337 338 339 340 341 341 340 339 340
315 315 315 315 316 316 316 316 316 316 316 316 317 316 317 317 317 317 317 318 318 318 319 319 320 321 320 320 319 316 313 314 320 329 357 353 349 348 349 351 353 324 321 319 320 324 328 326 325 325 326 324 325 324 327 328 331 328 324 327 328 332 327 330 330 333 331 329 328 329 331 327 326 322 330 329 331 334 337 338 338 339 342 343 340 340 340 339
315 315 315 315 315 315 315 316 316 316 316 316 317 317 317 317 317 317 317 317 318 318 319 320 321 321 320 319 316 313 312 311 320 329 359 355 347 346 348 332 326 321 320 318 319 324 328 324 322 325 323 321 323 323 326 326 328 325 324 327 328 329 329 333 331 331 332 329 331 331 326 325 326 327 328 328 332 335 337 339 338 339 340 341 340 340 340 340
315 315 315 315 315 316 316 316 316 316 316 316 316 316 316 316 316 317 317 318 318 319 320 321 322 322 320 318 316 312 313 323 327 331 342 334 329 333 328 323 324 320 319 320 322 327 328 323 323 325 320 322 325 322 324 323 321 326 326 328 327 326 328 330 332 330 332 331 332 327 325 326 328 330 325 330 332 335 338 337 337 338 336 338 338 340 339 340
315 315 315 315 315 316 316 316 316 316 316 316 316 316 316 316 316 317 317 318 318 319 321 323 322 321 318 315 313 307 318 327 327 333 329 327 326 328 323 324 323 321 320 320 323 328 326 324 324 328 327 326 326 321 324 323 321 328 326 327 327 327 327 327 328 331 331 330 331 324 324 325 328 326 320 331 332 335 335 336 336 336 336 339 339 339 339 340
315 315 315 315 315 316 316 316 316 316 316 316 315 315 315 316 316 316 317 317 318 320 322 324 324 320 316 316 309 307 325 322 327 331 328 326 325 324 323 325 323 322 324 324 324 330 329 326 327 329 328 323 326 322 323 324 327 326 326 326 326 325 325 327 328 328 330 328 329 326 324 325 326 324 321 328 332 334 333 334 334 336 335 336 338 338 340 341
315 315 315 315 315 315 316 316 315 316 315 315 315 315 315 316 315 316 316 317 318 321 323 323 323 321 319 315 309 311 324 323 325 328 328 323 324 325 325 326 325 324 327 326 327 329 329 327 326 325 321 329 319 324 323 327 325 325 325 318 321 322 322 325 324 327 329 326 328 327 322 320 321 320 324 329 333 332 333 333 332 334 335 336 336 339 341 340
315 315 315 315 315 315 316 316 316 315 315 314 315 315 315 315 315 315 316 317 319 322 323 323 324 322 318 310 314 321 324 326 327 325 327 326 323 326 327 326 327 325 326 327 328 329 329 326 325 321 326 325 322 316 324 326 325 325 324 321 320 318 317 322 325 326 326 326 327 325 311 315 318 322 325 330 331 332 331 332 332 333 334 336 337 339 339 340
315 315 315 315 315 315 316 315 315 315 314 314 314 314 314 314 314 316 317 318 321 323 323 323 324 322 317 312 320 325 326 326 326 325 324 328 324 321 324 326 327 327 327 325 328 329 326 325 323 321 326 322 319 327 320 321 322 317 321 322 316 314 313 321 322 323 322 326 325 325 312 314 319 322 325 329 332 331 330 331 333 334 334 335 336 338 339 342
315 315 315 315 315 315 315 315 314 314 314 314 313 313 312 312 315 317 319 320 323 326 324 323 324 320 314 315 325 327 346 333 322 322 325 322 324 321 319 323 323 325 326 326 326 327 325 322 320 317 316 323 322 319 317 316 317 317 313 311 315 312 314 319 322 322 318 323 325 322 312 314 318 321 325 330 332 331 330 330 332 333 333 334 336 338 338 339
314 314 315 315 315 315 314 314 313 313 314 312 311 311 313 314 317 319 320 321 324 322 324 321 321 320 315 310 318 338 328 320 317 322 325 323 324 321 320 320 323 323 324 324 327 327 325 322 316 316 316 318 315 313 313 313 311 314 311 310 311 312 312 314 319 322 323 322 323 320 313 315 316 322 326 330 331 330 330 330 333 334 334 334 335 337 339 340
314 314 314 314 315 314 314 313 313 313 312 311 311 311 314 317 318 320 322 325 326 324 324 320 324 322 308 320 326 317 317 322 324 321 321 323 325 327 325 323 321 320 322 323 324 324 324 319 319 316 317 312 313 313 309 307 307 308 312 309 312 311 312 310 317 321 322 321 318 320 316 316 319 322 324 329 331 329 328 331 332 334 334 336 336 336 337 339
314 314 313 314 314 314 313 312 312 312 311 310 310 311 313 319 320 316 322 323 326 325 324 325 323 318 314 322 312 314 321 321 322 322 321 323 327 328 327 322 321 321 322 320 323 318 321 316 318 310 312 311 311 309 306 303 306 307 308 308 309 312 313 312 311 318 320 321 318 318 317 317 319 322 324 328 329 327 328 331 332 333 334 336 336 337 337 339
314 314 313 314 313 313 313 312 312 310 310 311 312 315 319 316 320 319 320 326 322 319 312 315 315 300 304 313 321 318 319 322 322 321 318 322 323 325 324 326 324 321 317 315 316 317 318 316 316 311 306 307 308 310 309 311 312 310 311 310 310 309 310 311 315 320 320 317 316 317 315 315 318 320 324 327 330 328 329 332 332 332 332 336 336 335 337 339
314 314 314 313 313 313 312 312 311 310 309 309 312 314 312 306 304 315 314 309 305 307 312 312 317 313 315 317 317 323 323 322 316 318 320 322 319 317 317 320 319 319 316 310 314 314 319 311 308 307 308 310 311 312 314 314 313 313 313 312 311 311 312 315 316 319 322 317 316 316 317 317 317 319 323 326 327 327 329 329 330 333 333 334 334 336 338 340
314 314 314 313 312 312 312 311 310 309 309 310 310 308 300 301 297 296 302 304 307 308 305 305 307 309 313 319 321 320 315 315 319 316 318 323 319 315 313 317 316 312 313 314 313 318 316 309 308 311 313 313 314 314 315 315 313 311 310 310 310 311 310 314 316 319 320 316 314 317 316 316 317 319 323 325 325 323 327 327 329 331 332 333 334 334 336 340
313 314 313 312 312 311 311 310 309 309 309 312 313 305 304 305 307 309 306 298 304 307 307 307 308 306 310 310 313 315 314 314 314 317 318 319 316 310 312 313 313 310 314 314 314 311 307 306 310 313 316 316 316 316 315 314 311 310 308 309 309 310 314 316 316 318 319 316 313 316 314 315 318 319 324 324 324 324 329 326 328 330 333 334 335 338 338 339
314 313 313 312 311 310 310 309 308 307 310 313 311 306 304 309 311 313 310 303 301 308 307 307 306 306 306 310 312 314 308 309 310 315 315 316 314 312 311 309 310 312 313 314 308 307 303 306 312 316 316 314 313 313 313 311 311 309 308 307 306 311 310 308 314 317 317 317 314 316 313 315 318 320 320 321 323 324 329 329 329 331 333 334 335 335 335 336
314 314 313 312 311 310 309 308 307 313 313 311 311 306 309 311 311 312 307 298 296 302 306 307 308 309 307 305 311 310 308 310 314 313 320 314 310 314 311 309 309 310 309 312 311 307 306 310 314 315 314 312 310 310 310 308 306 310 310 309 308 309 311 311 312 315 318 318 318 315 313 312 315 315 316 321 324 323 325 329 331 333 336 337 337 337 337 335
313 313 313 312 310 309 308 306 312 307 311 313 308 310 310 311 312 313 304 301 302 302 313 311 311 309 311 316 313 307 310 312 315 319 320 316 311 310 308 312 310 307 309 312 311 308 308 313 314 311 311 310 309 307 308 309 306 307 310 311 310 311 311 312 313 313 310 310 315 313 306 307 314 315 315 318 321 321 326 330 330 337 337 335 334 336 338 340
313 313 313 311 310 309 307 308 306 310 312 308 308 310 311 311 312 312 305 298 293 303 309 305 314 306 316 309 310 309 310 306 315 318 320 318 318 311 310 307 310 304 309 310 309 309 309 313 313 311 310 309 308 307 309 310 307 306 307 312 311 311 311 311 311 310 306 305 312 316 306 304 312 313 316 318 318 317 323 333 332 334 334 336 336 338 338 337
313 312 312 310 310 308 305 303 310 314 309 307 310 310 310 311 315 310 301 297 295 308 303 309 308 308 312 310 309 310 297 301 313 317 318 321 314 316 307 305 308 310 312 313 309 305 310 310 311 313 312 309 308 306 310 310 307 305 313 312 311 310 309 310 310 309 308 313 314 314 311 305 306 311 316 317 317 318 321 325 334 334 333 334 337 339 339 338
312 312 310 309 308 308 307 309 311 310 307 309 311 311 311 312 313 310 300 288 291 310 304 306 308 313 311 311 311 305 306 312 304 309 317 320 318 313 309 306 306 306 310 310 300 310 311 308 309 310 310 309 307 310 313 313 309 308 312 313 310 310 310 311 309 308 309 308 305 309 313 306 305 311 317 317 314 315 317 320 324 333 333 335 336 336 337 337
311 311 310 309 308 306 313 311 311 309 310 311 312 311 311 312 308 301 295 286 304 305 312 305 314 312 311 312 308 308 307 311 305 310 315 319 319 316 306 309 309 309 311 310 305 309 312 312 311 311 310 307 311 312 313 313 308 311 313 314 312 312 310 310 307 307 307 305 301 306 310 304 305 311 312 315 314 314 316 318 320 333 333 333 334 336 337 338
311 310 310 309 309 312 311 311 311 311 311 312 311 311 310 308 303 294 292 284 306 298 307 306 306 305 310 306 306 307 305 307 309 312 312 312 315 317 315 315 310 309 308 311 310 311 313 317 317 312 310 312 313 313 314 313 313 314 313 310 310 309 309 309 307 306 304 299 301 306 308 307 301 308 311 311 312 316 317 319 321 331 332 338 337 337 337 339
309 309 309 308 309 310 311 309 310 311 312 312 311 310 307 303 294 290 285 296 303 304 309 307 305 309 306 304 302 307 307 307 307 310 307 312 312 313 313 309 312 307 307 307 307 310 312 313 312 313 315 315 315 312 314 315 314 312 309 307 307 305 307 305 305 305 298 295 302 306 307 308 300 305 311 315 319 319 319 318 320 332 330 333 335 336 339 340
308 307 308 309 312 315 308 308 311 311 311 311 309 305 300 289 296 286 287 305 292 300 300 299 304 302 302 305 304 305 304 306 308 307 306 306 307 306 307 303 305 299 299 302 302 308 306 308 313 314 318 314 313 310 310 312 312 310 308 307 301 298 300 297 301 296 295 295 303 306 307 304 303 309 312 314 317 319 321 321 325 323 330 334 336 337 338 338
307 306 306 312 316 316 315 313 311 311 311 310 306 303 295 289 282 291 293 298 292 300 297 302 299 300 301 301 301 304 308 303 307 307 309 308 307 308 310 308 309 304 297 302 302 303 304 310 310 312 313 315 314 306 306 305 308 307 305 304 299 296 295 292 296 299 299 302 306 305 307 301 307 310 314 313 316 319 321 322 325 327 327 334 333 336 337 337
306 307 311 316 316 315 315 313 311 311 308 308 303 297 293 285 284 297 292 294 295 301 300 298 298 300 302 299 302 305 302 307 306 306 308 306 306 304 307 309 310 307 305 305 301 303 298 299 305 309 306 314 312 311 311 308 307 307 309 306 302 301 297 293 296 294 296 300 303 307 303 300 300 305 314 315 317 319 322 322 324 330 331 331 334 333 335 337
305 310 317 318 317 314 311 310 311 310 308 304 298 293 286 285 290 289 292 295 297 298 296 299 297 298 298 302 304 305 304 302 308 306 305 304 302 304 305 305 309 310 308 301 305 305 303 302 308 312 313 314 311 314 315 312 309 310 310 309 304 301 307 299 301 300 300 299 300 302 301 306 306 315 316 316 316 317 319 321 323 328 330 331 334 334 333 333
309 315 316 315 310 311 310 310 310 309 306 300 294 290 287 290 288 295 292 298 297 293 294 297 297 295 297 299 304 302 308 302 305 306 305 304 305 304 308 309 308 310 307 302 306 302 305 301 310 311 313 313 312 314 314 315 302 307 307 302 304 311 307 304 305 306 305 302 299 306 304 306 310 311 313 315 314 315 316 318 319 329 330 333 332 332 333 335
311 313 311 313 312 313 311 310 310 308 306 300 293 288 293 294 297 294 297 294 295 296 294 289 292 293 293 293 295 299 299 304 305 305 302 306 302 306 307 309 312 310 311 309 305 311 303 303 311 310 307 313 316 315 314 315 314 309 302 305 311 313 311 305 298 303 300 296 299 303 301 303 303 300 312 312 313 314 315 316 317 321 333 329 328 327 331 331
309 311 312 312 314 312 311 311 310 308 304 298 291 292 297 292 298 296 297 296 296 296 293 291 292 296 292 292 292 295 298 294 303 304 301 305 301 310 308 308 312 311 311 313 307 307 310 302 307 311 310 312 316 314 312 314 315 310 307 314 304 300 299 305 303 296 296 296 299 302 304 304 305 305 309 309 310 312 316 317 317 317 323 328 332 330 328 329
311 310 303 307 312 311 310 312 309 306 300 293 291 289 295 294 298 297 297 297 296 294 291 292 290 293 293 291 293 295 296 292 296 302 299 304 301 305 305 305 308 311 313 312 308 308 310 302 305 312 310 312 312 311 303 307 313 314 315 310 312 308 304 301 302 304 304 298 299 300 304 301 309 309 311 311 313 315 314 316 315 318 328 331 332 330 330 332
307 304 301 309 312 310 312 310 305 302 297 290 291 291 296 292 295 297 298 297 294 293 293 291 294 290 293 293 294 291 294 294 294 296 300 301 300 306 303 308 305 307 308 310 309 311 306 310 300 308 312 311 304 308 305 307 305 306 306 307 308 307 311 308 307 303 301 300 301 300 298 304 310 315 313 314 315 316 316 317 321 318 334 329 332 333 333 333
309 304 302 311 311 311 309 306 300 296 294 296 296 294 294 292 295 295 297 298 296 299 295 294 293 291 292 291 291 294 293 294 295 293 296 301 300 296 305 305 306 305 309 310 309 310 307 306 301 306 307 305 306 311 311 310 310 307 306 305 307 304 302 299 298 307 304 301 297 300 299 310 312 316 316 316 318 316 318 319 319 320 320 334 335 332 334 331
304 296 299 310 311 309 304 297 297 298 295 293 292 294 293 298 294 295 296 298 296 294 299 295 295 294 294 293 293 293 293 292 294 294 297 297 301 300 304 308 307 307 306 305 307 312 311 309 306 302 305 307 310 312 314 314 313 311 309 306 309 308 306 302 295 300 304 304 306 305 302 308 317 318 319 318 318 318 319 318 318 319 320 324 329 332 334 333
301 299 308 311 310 307 301 296 298 296 294 296 299 297 298 295 294 295 294 296 293 296 295 294 293 293 295 294 293 292 294 291 293 293 296 297 300 304 306 307 307 307 307 306 308 310 317 307 303 304 309 312 312 313 313 314 313 309 309 310 309 306 306 305 304 306 303 304 301 301 301 306 314 327 324 318 326 319 321 319 323 319 319 323 327 328 334 333
302 302 303 309 310 307 298 291 291 293 294 297 297 295 298 296 295 294 294 294 293 293 292 293 294 296 293 296 294 291 294 288 295 295 295 298 296 304 303 304 307 304 304 303 301 308 303 308 304 301 302 305 306 308 309 312 311 308 307 308 309 310 310 309 309 310 303 304 303 300 296 304 314 328 325 321 318 318 318 319 321 321 323 322 326 329 336 335
303 305 303 304 308 305 296 297 294 293 293 293 294 292 294 294 297 297 296 294 295 294 293 292 294 295 294 296 294 295 295 293 291 296 296 296 296 302 303 303 305 304 307 308 311 310 303 304 305 298 296 295 295 295 298 301 304 308 310 308 309 308 308 306 302 306 299 309 309 302 302 310 315 323 318 318 318 326 320 320 320 323 324 322 326 338 340 337
300 292 299 300 304 302 301 301 298 295 293 293 292 293 294 292 296 298 297 296 297 297 295 294 295 296 294 294 293 292 292 295 292 292 293 292 297 299 302 303 304 305 310 313 312 309 303 305 305 304 303 302 307 309 309 310 307 303 306 307 307 308 309 309 308 304 300 307 306 310 310 310 311 312 315 314 318 316 316 321 320 323 331 335 347 349 343 340
303 294 295 292 299 299 297 298 297 297 293 295 290 294 292 293 294 295 299 293 297 295 295 294 295 292 293 293 292 292 293 292 295 294 293 292 296 298 302 302 304 308 312 310 311 306 305 302 304 307 306 306 308 311 311 311 307 307 306 306 308 307 308 307 304 302 316 306 301 313 323 310 310 313 314 317 316 321 318 324 320 327 334 331 335 345 345 339
294 297 299 300 293 291 292 293 297 295 297 297 293 296 293 292 293 291 295 297 296 298 293 295 295 296 294 292 292 290 292 291 292 290 293 293 294 297 297 302 301 307 307 304 309 305 302 299 304 306 306 308 309 309 311 311 310 309 307 307 306 307 307 305 307 308 311 305 304 316 319 314 313 314 315 318 320 320 316 318 319 325 330 334 337 330 330 336
300 300 299 302 294 296 296 296 296 296 295 296 294 295 291 291 291 293 293 294 295 294 295 290 292 294 295 295 293 290 292 288 288 292 291 291 292 293 293 296 300 302 301 303 305 308 303 301 304 306 305 306 308 309 310 309 310 309 308 308 308 308 307 307 307 309 309 314 313 314 320 313 315 315 316 317 320 318 320 324 322 324 327 335 331 333 325 331
295 294 293 298 299 296 297 296 295 295 293 296 292 293 292 292 291 293 296 294 291 292 296 292 293 295 295 294 293 290 292 293 291 288 292 292 292 293 292 294 294 299 300 298 301 305 302 301 305 304 302 303 306 309 309 310 309 307 309 309 308 308 308 308 308 308 310 309 310 310 316 314 317 322 320 321 337 320 322 318 320 328 325 325 327 324 324 326
301 302 302 294 290 295 296 296 294 294 292 294 291 293 293 293 291 294 293 297 295 292 293 292 295 294 295 294 293 293 295 295 295 295 296 294 290 295 291 292 296 293 297 297 299 300 301 299 303 303 299 300 305 306 307 309 308 308 308 309 309 308 306 307 306 309 308 308 311 310 312 310 317 321 319 321 320 321 321 324 325 327 322 324 323 323 325 332
303 304 303 298 290 296 293 296 296 293 289 294 294 294 292 294 296 295 292 296 296 298 296 295 295 294 293 293 293 294 297 298 298 298 298 298 298 297 297 296 296 295 295 296 299 297 299 299 298 300 297 299 304 306 305 307 307 303 304 307 308 310 310 310 310 311 310 311 308 306 309 317 321 323 319 317 317 318 320 319 322 324 333 326 324 323 324 330
Wind_Speed
22 22 22 22 22 22 23 23 23 24 25 25 24 25 24 24 24 23 21 20 19 20 20 20 19 19 18 18 17 16 14 13 15 13 15 25 11 15 24 11 9 15 12 11 12 12 15 16 17 16 14 12 11 11 10 13 9 8 7 6 6 6 5 4 8 2 11 9 5 7 2 8 9 6 8 10 10 9 9 11 9 12 14 17 20 21 21 23
22 21 22 22 22 22 23 23 24 24 24 24 25 25 25 25 24 23 22 21 20 20 20 19 20 19 18 17 16 16 14 13 16 18 26 20 13 21 17 18 11 14 12 14 15 15 15 16 16 16 14 12 10 10 10 9 10 8 7 9 6 5 5 7 9 5 9 7 3 8 11 4 7 5 6 6 9 10 11 10 10 18 19 21 22 22 23 23
22 22 22 22 23 22 23 23 23 23 24 24 24 24 24 25 25 24 23 22 21 20 20 19 19 19 18 17 14 14 14 15 16 23 26 24 27 19 18 15 16 15 17 15 15 15 15 14 15 16 13 12 11 11 12 10 11 11 9 6 3 7 7 8 9 8 12 8 14 9 8 8 3 3 5 8 8 10 10 10 14 16 19 21 22 22 21 23
22 22 22 22 22 23 23 23 24 24 24 24 24 25 24 24 24 24 24 23 22 20 21 21 19 18 18 17 13 13 11 14 12 11 6 10 28 24 20 19 18 18 18 16 15 15 14 14 15 16 13 13 11 13 12 10 9 7 10 9 11 8 5 8 10 15 13 15 13 9 8 5 9 5 7 11 9 6 9 12 11 16 20 22 22 22 20 21
22 22 22 22 23 23 24 24 24 25 25 26 26 25 24 24 23 24 23 23 22 21 20 20 19 18 16 14 12 10 10 9 0 10 7 6 11 25 23 21 20 18 18 15 16 16 16 16 15 15 13 11 13 12 13 13 10 8 11 11 7 9 10 6 8 10 17 17 3 3 11 5 7 8 6 9 4 5 8 12 12 17 21 23 23 22 21 21
22 22 22 23 23 24 26 27 27 28 28 26 25 25 24 24 23 23 22 22 21 20 20 19 18 17 15 10 10 9 6 3 6 7 6 8 8 17 20 19 19 18 17 17 16 16 17 17 16 14 12 13 13 14 12 13 12 11 11 11 10 13 6 5 5 10 22 13 6 3 17 14 7 7 10 6 10 12 7 15 16 18 21 22 21 21 20 22
23 23 23 23 24 25 26 27 26 26 25 25 25 24 24 23 23 22 22 21 20 19 19 18 16 15 12 9 10 8 9 13 8 8 10 13 14 15 13 13 14 16 17 17 18 16 18 17 17 14 13 14 16 14 14 12 14 13 10 8 9 13 12 10 10 9 15 8 5 4 6 6 7 3 8 10 9 13 10 17 18 19 20 22 22 21 22 21
23 24 25 27 27 27 27 26 25 25 26 25 25 24 23 23 23 23 22 21 19 19 18 16 13 11 9 8 6 8 12 17 22 9 9 12 13 14 16 15 17 16 18 20 18 19 17 19 17 15 14 13 11 15 13 15 14 13 13 14 11 11 12 18 8 7 14 10 7 2 6 6 8 4 6 8 9 16 12 15 19 20 20 20 21 20 20 19
24 25 25 25 24 25 26 26 26 26 26 26 25 23 23 22 22 22 22 21 19 17 16 13 11 9 4 6 8 10 17 18 18 11 16 14 14 14 16 12 16 17 17 19 20 18 17 16 18 16 12 16 15 15 16 13 12 14 15 13 13 13 10 10 13 10 18 11 6 8 8 4 6 10 5 13 10 15 15 17 19 20 19 20 20 19 19 18
25 25 25 25 26 26 26 27 27 27 27 28 26 24 23 22 20 20 21 21 18 17 14 11 8 7 7 6 8 11 11 14 13 18 17 14 16 17 16 11 17 17 16 19 18 19 18 13 18 16 16 14 13 15 15 16 11 10 14 14 14 15 14 10 12 14 15 11 8 9 7 7 7 6 6 10 13 15 17 17 19 19 19 20 18 18 17 20
25 25 25 27 28 27 28 27 28 27 27 27 28 25 22 21 20 20 21 21 18 15 13 11 7 9 9 9 9 13 10 9 8 15 15 13 15 15 13 11 17 15 18 17 19 19 17 16 15 10 12 11 12 16 15 14 12 14 13 15 16 16 16 12 11 12 10 11 11 11 11 6 7 10 4 11 14 16 17 18 18 18 18 18 19 19 16 16
26 26 26 27 27 27 28 29 28 28 28 27 27 25 22 22 20 19 20 20 18 14 11 8 9 7 9 10 13 16 4 2 1 8 13 12 14 14 13 12 15 17 16 16 18 17 17 16 14 15 10 11 15 13 15 16 16 12 16 14 11 11 11 14 14 11 10 10 11 11 10 11 11 10 6 10 16 16 17 18 16 18 17 18 17 18 16 17
26 26 26 27 27 28 28 29 28 29 29 28 26 23 23 21 19 19 20 18 12 10 10 9 8 7 8 11 20 21 22 19 9 6 6 9 12 13 13 13 15 16 17 16 15 15 15 15 16 16 16 12 11 11 3 7 15 14 12 11 13 14 13 15 14 15 14 11 9 9 9 8 9 10 11 11 14 16 17 15 15 14 16 16 17 17 17 17
26 27 27 27 28 28 28 29 29 30 29 27 27 23 21 20 20 19 18 15 15 12 7 6 8 7 9 13 7 11 22 18 20 17 10 9 12 15 16 15 14 14 14 16 15 12 15 14 16 17 12 16 13 10 19 8 8 10 13 12 12 11 11 13 14 16 16 12 13 10 10 6 10 14 11 12 16 15 15 14 14 15 14 15 15 16 16 18
26 27 28 28 28 28 28 28 29 29 29 28 27 25 24 27 19 19 15 12 13 12 7 5 8 7 9 12 14 27 27 17 16 18 13 14 13 14 18 17 16 16 14 15 13 12 12 15 16 15 13 14 16 17 13 13 11 11 10 14 12 12 10 14 15 16 15 13 16 14 9 9 8 9 15 13 15 14 13 14 14 12 13 15 14 16 16 16
25 25 27 28 29 28 29 28 29 29 29 29 30 30 26 23 16 11 9 11 11 3 5 6 9 11 10 14 8 1 12 17 16 15 16 16 14 15 15 18 16 16 16 14 12 10 12 14 15 13 13 14 16 13 12 10 12 12 13 11 13 13 12 12 14 16 19 14 14 15 9 8 10 13 16 15 16 14 13 14 11 11 14 15 14 15 14 15
24 25 25 27 28 28 29 29 29 29 31 30 32 31 28 18 10 9 7 7 6 6 7 5 7 11 7 0 7 11 11 16 14 13 14 16 14 14 15 17 16 18 16 15 14 13 12 14 10 13 15 13 13 13 13 13 13 13 13 12 12 14 12 12 12 16 18 16 13 18 13 12 4 15 12 15 15 12 12 14 16 14 10 12 13 14 13 14
24 24 25 25 28 28 28 30 30 30 30 32 30 31 24 25 6 2 7 8 6 6 7 10 10 8 17 19 14 10 10 11 15 14 15 14 16 14 13 14 13 16 15 15 15 16 13 12 12 13 12 15 15 15 16 18 15 11 12 13 13 15 15 13 11 10 15 19 16 13 13 15 11 11 13 15 13 12 12 14 9 10 9 11 12 13 16 14
25 25 25 24 27 28 27 28 31 31 28 28 31 29 20 3 7 4 5 5 5 4 5 7 10 9 5 1 16 17 9 9 12 15 15 16 14 14 13 12 14 16 15 15 13 18 12 11 12 13 17 18 19 19 18 17 14 14 14 13 13 13 13 14 15 13 15 15 15 16 13 14 13 15 15 15 14 11 12 11 15 16 14 12 11 13 14 13
25 25 25 26 27 27 27 27 31 30 28 20 18 15 5 9 4 4 2 8 12 15 20 15 12 17 24 23 11 9 5 1 14 14 15 16 14 15 13 13 14 16 16 15 14 18 10 14 16 19 17 18 20 21 19 20 18 16 16 16 15 14 14 15 16 12 12 12 15 17 17 15 16 14 18 16 14 14 15 15 11 10 13 12 12 11 13 14
24 24 25 25 27 28 27 27 30 29 28 17 16 12 12 14 15 11 17 19 17 20 20 23 22 21 21 19 17 7 8 9 11 14 17 14 16 14 14 15 15 16 17 17 14 13 16 16 20 21 19 20 19 20 20 19 20 20 17 16 15 16 14 15 16 15 13 13 13 18 18 17 15 13 20 19 18 18 20 16 15 16 15 13 14 14 14 12
26 25 26 26 26 28 29 28 30 28 28 14 12 9 8 11 6 10 12 17 20 16 20 23 23 24 21 24 24 20 18 10 15 14 15 19 17 17 15 16 18 16 16 16 15 13 17 21 20 20 19 19 18 19 21 21 19 20 17 15 15 13 13 14 18 15 15 16 12 17 18 16 19 17 16 21 20 16 22 21 19 19 17 14 14 11 10 10
29 28 29 27 26 27 30 29 29 28 11 10 8 11 11 11 11 8 10 15 21 20 16 20 21 24 23 18 19 16 18 16 14 17 17 18 19 19 16 17 17 16 17 19 17 16 16 19 21 18 18 20 20 20 21 22 19 15 16 16 14 12 12 12 15 16 13 10 12 13 15 13 17 15 16 18 21 16 19 25 22 19 20 18 18 17 14 15
28 28 29 29 28 29 31 27 30 19 5 12 9 12 12 11 12 11 13 9 15 22 20 23 22 20 21 19 14 20 18 13 15 17 17 19 18 18 16 20 19 17 18 22 23 19 19 9 17 19 20 21 22 21 20 17 17 18 19 17 15 16 15 14 11 16 16 15 11 12 13 11 10 13 13 9 17 15 16 28 21 19 20 19 17 17 18 19
26 27 28 29 29 29 31 29 11 11 15 14 9 13 14 13 10 12 12 13 11 13 17 17 15 17 19 14 13 16 16 15 17 13 17 20 20 17 17 13 14 18 19 21 22 22 20 17 14 22 21 22 21 19 22 18 16 16 22 21 19 18 17 15 17 14 13 14 16 17 9 11 11 16 16 13 16 16 15 25 21 17 19 19 19 19 19 16
27 27 27 28 29 26 33 13 8 13 18 7 13 14 13 13 11 11 11 7 13 11 10 11 13 11 13 15 15 15 15 18 17 15 14 19 18 17 12 14 12 18 22 21 19 14 16 16 18 18 22 22 22 19 20 21 15 16 16 21 22 20 18 18 17 14 12 14 15 19 16 11 12 15 16 17 13 15 14 26 21 21 20 20 18 17 18 19
26 27 26 27 28 23 13 6 13 16 9 11 14 14 13 13 10 14 9 7 11 4 6 9 12 4 7 14 17 14 14 14 14 18 19 19 21 17 17 16 14 12 13 11 10 15 15 21 20 18 19 20 19 19 19 21 17 15 13 18 21 22 20 18 18 15 12 13 11 20 15 11 12 14 16 18 17 14 15 26 28 24 24 23 21 21 19 18
27 26 27 26 27 21 8 10 13 10 11 12 14 14 14 12 13 10 6 8 3 6 5 3 4 3 6 13 19 18 10 6 17 20 22 17 22 20 19 20 19 19 17 15 20 12 18 21 22 21 19 17 18 17 17 20 17 12 13 15 18 21 21 18 15 14 13 12 12 15 22 16 12 10 13 17 19 18 16 17 20 21 24 23 21 21 21 20
26 26 25 25 26 32 15 8 8 11 13 13 14 14 11 14 12 7 6 8 8 4 4 3 2 4 1 9 17 16 16 7 8 15 21 20 24 15 17 22 19 18 20 21 16 13 15 18 20 21 17 15 15 19 18 19 17 17 16 14 14 16 20 20 15 14 13 13 14 15 14 10 11 12 15 16 18 20 19 20 18 24 23 21 20 20 21 17
26 25 27 23 20 12 5 8 11 10 14 14 14 15 17 13 9 7 6 9 4 4 9 4 5 6 6 9 10 14 17 13 12 9 22 19 21 23 15 15 18 18 18 21 21 17 15 15 18 16 18 15 15 17 18 19 19 12 16 14 12 12 12 14 14 12 11 16 16 19 18 14 11 10 10 12 15 16 18 18 13 22 22 21 20 22 20 18
28 29 27 22 9 9 12 8 10 15 13 13 14 17 13 8 7 7 10 5 11 10 10 4 13 6 7 12 11 15 17 17 17 13 16 19 20 22 15 14 17 15 15 17 19 21 20 16 17 14 18 13 15 15 17 18 18 17 11 13 9 9 10 11 11 14 14 17 16 18 19 15 13 11 14 13 10 14 13 11 20 24 19 20 19 19 21 21
28 29 29 17 12 9 8 9 14 13 12 15 16 11 8 9 7 9 10 11 12 11 12 15 17 16 16 15 14 8 13 15 17 15 14 17 17 18 20 16 15 15 18 17 17 17 19 20 15 17 16 21 17 15 15 18 17 16 13 13 13 10 10 10 8 14 17 14 9 18 18 16 18 12 11 15 14 13 17 12 17 19 23 23 21 20 19 17
28 30 29 16 13 8 11 10 12 11 14 14 11 8 9 7 10 8 11 11 2 13 13 17 18 20 18 15 12 13 12 14 15 17 16 18 18 19 22 21 17 18 15 16 15 15 17 20 22 17 17 18 18 16 14 17 16 17 16 14 15 13 12 10 12 9 10 13 13 12 19 17 13 12 18 19 14 13 18 18 19 24 22 22 22 22 20 19
30 30 13 11 11 11 10 11 10 13 14 11 9 8 8 9 10 11 16 12 12 15 16 17 23 20 16 11 10 10 9 13 14 13 13 14 19 16 18 25 24 21 16 12 15 15 14 16 22 23 14 18 21 17 16 12 16 16 14 14 13 11 10 12 11 15 14 7 13 18 12 13 18 9 12 20 20 16 11 16 18 22 23 22 25 22 22 22
34 25 15 13 11 8 7 11 11 13 11 9 9 8 9 9 9 11 12 8 11 13 17 19 18 17 16 13 12 15 15 8 16 16 16 15 16 16 17 18 27 20 17 15 13 12 21 15 14 23 14 19 22 19 17 16 15 16 15 13 15 17 10 11 9 11 10 11 10 14 15 11 10 6 13 14 19 21 17 12 17 19 22 22 22 20 21 20
21 10 12 10 5 6 9 9 11 11 9 8 8 7 9 9 9 8 11 20 13 15 19 17 12 12 13 11 10 14 14 13 11 16 14 19 17 18 19 15 19 26 16 16 9 13 14 15 16 21 24 18 22 20 19 17 13 14 15 18 17 12 13 9 10 13 13 11 12 8 11 14 11 13 13 15 17 20 21 18 16 17 24 23 20 21 21 19
13 13 10 8 9 7 10 10 9 10 8 7 6 8 9 12 14 19 11 18 19 18 15 13 8 10 9 11 12 13 17 16 15 13 13 16 16 18 18 18 18 24 26 15 15 14 11 13 15 18 27 22 18 21 21 21 13 11 17 16 13 15 13 10 9 6 10 12 9 11 14 12 13 10 11 14 15 14 19 21 20 16 23 25 22 21 19 21
14 12 14 16 11 8 10 9 9 8 8 7 7 8 8 13 12 14 14 14 16 18 13 11 10 12 11 13 13 19 18 17 6 10 12 14 8 10 19 14 21 19 24 26 15 13 14 12 16 23 23 21 17 19 20 22 22 15 14 13 15 13 14 11 8 12 10 11 8 12 16 13 13 10 11 17 18 16 14 17 20 18 21 24 22 20 21 19
13 12 7 6 7 10 9 9 10 8 8 7 8 8 5 8 11 10 11 13 12 17 13 11 13 11 15 13 14 16 16 12 20 10 6 8 13 13 12 11 7 9 16 27 22 14 13 13 9 20 21 21 18 17 19 19 21 23 12 15 15 11 12 12 12 7 7 9 9 8 7 8 10 11 14 13 15 13 15 13 20 15 23 20 19 22 21 19
10 8 4 7 8 10 10 12 10 9 7 9 9 8 8 11 8 9 11 13 10 11 10 13 14 15 14 14 17 14 14 19 16 15 12 9 11 12 15 14 11 15 15 14 11 17 15 11 13 13 25 21 18 17 20 19 19 19 16 13 14 11 8 11 10 13 8 7 7 7 10 8 10 7 13 12 13 14 14 12 10 15 20 19 24 21 18 17
10 9 6 11 11 12 13 11 8 5 6 6 7 8 9 9 11 12 12 8 7 7 13 13 13 13 15 15 13 12 12 15 15 12 13 8 11 6 16 14 13 15 16 13 11 8 10 12 15 11 17 19 20 19 20 21 21 18 16 15 15 16 14 15 13 12 13 8 5 6 7 3 6 12 10 12 12 15 15 13 11 16 20 22 21 21 18 18
11 8 8 8 8 14 12 11 3 5 6 8 8 8 8 8 11 12 7 9 8 9 8 9 13 14 14 13 13 13 13 14 14 16 12 10 9 10 13 18 15 13 12 6 8 11 11 8 12 15 13 18 20 21 20 20 21 20 18 16 15 14 13 11 9 11 11 12 10 8 8 1 5 8 4 11 9 12 14 14 13 15 17 17 19 23 21 19
8 10 15 11 12 11 12 8 8 7 7 8 11 10 9 8 8 9 9 7 8 7 10 8 11 14 12 12 14 13 14 13 15 15 18 14 11 12 12 17 19 14 15 10 16 4 17 7 12 15 14 15 21 18 20 21 21 21 21 19 16 16 17 13 9 8 9 11 11 8 9 4 8 5 2 4 4 10 10 12 8 13 12 13 18 20 21 20
11 12 13 8 10 9 10 7 8 8 9 9 11 13 7 8 8 7 8 9 8 5 7 9 10 10 12 12 11 12 13 12 11 15 13 14 11 26 29 26 19 12 11 9 7 12 6 8 12 9 9 9 17 16 17 20 18 15 17 19 20 17 18 17 12 8 9 12 13 9 9 3 5 2 5 4 2 7 11 11 11 12 10 11 13 13 17 21
12 12 9 9 8 6 7 6 8 8 10 12 12 13 10 7 8 8 8 10 7 7 6 8 9 11 11 10 12 12 11 13 14 16 17 15 16 22 22 28 23 15 13 14 14 11 7 10 8 12 12 13 17 18 18 18 19 16 17 22 25 24 21 15 15 8 7 8 12 9 7 4 7 5 7 8 7 3 9 10 11 8 11 10 7 8 16 21
9 11 9 8 8 8 4 7 8 9 10 11 12 10 10 10 8 7 10 8 4 7 7 9 9 10 11 10 11 11 12 13 14 12 10 12 13 11 16 27 21 16 16 17 16 11 8 10 10 10 10 10 8 7 14 12 14 18 20 23 25 24 22 17 9 11 10 6 9 7 5 10 9 10 8 10 4 4 3 9 11 5 9 10 9 10 10 13
10 9 10 10 10 6 8 9 9 10 10 10 9 9 12 11 11 9 2 7 5 10 10 9 9 9 9 11 10 11 11 15 15 15 10 13 11 14 23 22 20 16 31 15 12 9 7 9 12 13 16 16 13 13 2 16 21 21 22 23 24 26 25 21 15 13 6 7 6 7 9 11 11 9 7 7 8 6 7 6 13 7 11 11 8 9 13 12
6 8 10 11 11 9 12 9 12 13 13 12 10 10 12 12 11 9 8 5 9 7 8 4 7 7 9 10 13 12 11 13 13 12 12 12 14 16 16 16 17 23 25 16 11 9 7 9 11 12 17 15 14 17 14 8 11 13 24 22 24 24 26 25 18 15 13 9 7 7 4 4 10 8 8 8 8 8 9 8 12 11 14 10 7 9 13 13
9 9 8 12 10 12 13 16 15 14 14 12 9 10 10 12 10 9 9 10 8 8 7 9 9 10 11 11 10 11 12 10 11 11 10 11 13 14 13 19 13 20 20 17 12 7 9 8 11 12 15 14 15 16 14 14 12 9 17 23 21 24 25 26 20 17 15 8 8 8 6 9 3 10 9 9 9 10 7 4 8 8 11 7 5 4 13 14
7 8 6 12 11 13 14 12 12 12 11 10 10 7 6 10 11 11 9 9 10 9 8 10 10 10 12 13 12 11 12 12 13 14 12 14 13 9 10 7 10 17 18 15 13 11 10 6 14 14 11 12 12 12 17 13 3 11 13 15 22 19 22 24 22 20 17 14 15 11 12 10 5 7 8 9 3 10 7 10 12 7 9 7 8 7 8 12
7 8 7 8 12 8 10 11 11 10 10 9 8 8 9 10 9 10 13 10 11 11 10 12 11 13 12 12 13 13 12 12 11 11 12 12 11 10 9 8 13 16 19 15 12 14 13 10 13 10 9 11 9 10 13 13 11 12 14 14 13 19 22 21 20 19 16 14 13 14 8 10 7 8 12 8 4 1 5 9 10 9 12 12 12 13 8 12
7 8 7 7 7 9 11 12 12 11 9 6 7 11 12 12 13 13 11 6 10 6 7 9 12 13 13 13 13 11 12 13 13 12 12 11 10 12 11 12 13 14 13 13 13 11 10 10 9 8 10 11 8 7 13 12 6 10 12 13 14 13 13 17 18 19 18 16 14 13 7 6 6 6 8 13 12 8 4 6 3 3 8 3 6 7 11 15
Wind_Direction
356 354 352 350 346 344 342 339 338 335 333 332 330 329 328 327 325 324 322 319 316 312 309 308 308 306 303 305 306 309 309 294 294 279 240 237 224 224 246 246 168 185 191 207 213 203 196 205 209 207 215 219 218 229 234 225 228 235 217 275 276 289 248 272 272 242 314 328 194 124 260 134 133 143 123 134 122 103 127 107 99 148 117 123 135 136 145 145
354 351 349 348 344 341 339 338 336 333 330 329 327 327 327 326 323 320 319 317 314 310 307 306 305 304 303 303 307 310 310 289 277 267 245 255 209 226 227 222 165 169 192 209 211 205 204 203 207 203 211 218 211 227 216 230 215 224 232 230 223 251 277 286 304 100 284 236 112 298 94 345 100 155 158 142 125 129 119 109 104 104 112 121 133 145 151 150
352 349 347 345 342 338 337 336 333 329 328 325 323 327 325 323 321 318 316 314 312 310 306 304 304 303 301 303 304 307 296 291 276 258 258 230 236 216 212 189 171 171 190 205 213 211 210 206 203 203 211 224 209 225 206 232 198 222 259 228 190 220 263 287 263 245 219 275 267 173 116 194 142 112 170 147 138 133 129 128 125 118 124 134 139 145 153 153
349 347 345 343 339 337 335 333 330 328 324 323 325 324 320 320 318 317 313 312 310 309 309 306 304 301 299 300 307 305 288 283 270 252 289 228 207 205 196 180 173 178 197 215 217 219 212 216 206 205 209 222 217 220 215 216 219 200 225 246 182 187 235 237 258 269 262 250 210 137 149 169 167 172 202 115 137 153 116 137 139 135 133 136 144 148 154 156
347 345 343 340 337 335 334 332 329 324 324 325 324 320 320 317 316 314 312 309 308 307 308 306 302 300 299 295 297 289 289 284 37 60 14 8 196 189 186 179 172 184 199 214 226 225 213 216 206 206 220 214 233 215 227 221 213 243 235 241 152 173 214 242 225 259 273 265 230 122 89 256 148 162 123 125 133 161 155 135 131 139 141 142 148 153 158 160
345 343 341 338 335 334 335 334 332 330 328 324 319 319 318 315 314 312 309 307 305 305 306 305 302 298 297 298 291 273 274 265 65 84 58 54 102 174 174 170 174 191 204 220 221 219 213 212 211 207 210 231 217 230 206 229 195 234 243 249 159 201 226 237 220 262 260 228 253 131 149 212 155 146 127 151 168 164 225 124 139 138 141 144 146 153 158 157
343 341 339 336 336 336 335 334 331 327 323 320 317 316 315 315 312 310 307 304 304 303 305 304 300 297 296 292 263 256 237 264 290 112 116 115 124 139 152 167 174 199 211 218 221 217 208 213 209 209 213 221 232 230 227 215 213 234 256 244 218 169 198 219 224 248 248 280 219 244 105 220 123 169 159 157 168 124 153 147 143 140 144 146 152 161 160 162
342 341 338 340 338 336 334 331 326 323 320 317 317 316 316 314 312 308 306 303 305 304 303 301 297 292 297 267 241 218 227 245 253 202 135 127 144 147 154 181 188 201 212 216 214 217 203 215 208 209 220 219 216 231 229 219 223 232 234 248 259 230 203 194 198 224 263 230 263 271 215 210 135 156 174 141 129 125 159 136 136 140 146 153 154 161 159 163
342 340 340 338 334 331 330 328 325 321 321 318 315 315 315 311 308 307 305 304 306 306 299 295 286 282 251 272 253 266 244 245 244 171 146 149 145 153 163 175 196 202 209 213 218 216 210 212 216 212 217 222 235 236 231 233 219 223 238 236 238 248 228 211 182 175 248 252 213 227 225 252 219 149 223 137 151 133 135 132 138 144 153 156 160 158 161 165
341 338 335 335 335 331 330 328 325 324 322 317 315 314 313 311 307 305 304 303 305 302 298 291 268 245 229 218 233 247 272 255 251 160 164 163 153 158 179 186 183 202 208 213 213 216 212 207 220 207 238 241 234 241 249 229 253 222 227 229 251 257 255 217 225 209 217 234 219 237 228 231 204 179 182 149 157 146 145 147 142 150 156 157 161 162 173 164
340 337 335 336 334 331 330 327 326 322 319 317 314 312 311 310 307 304 303 302 301 299 295 293 248 216 219 222 240 244 267 274 125 162 177 179 165 171 191 199 175 197 210 211 220 214 213 225 207 232 219 241 243 245 245 255 227 244 243 218 221 235 251 259 230 222 229 222 225 245 258 219 234 167 218 159 158 145 148 147 150 154 162 162 164 162 169 171
338 336 336 334 332 331 329 328 325 322 319 316 312 309 307 308 307 304 301 301 298 289 294 290 212 215 245 239 236 232 209 267 207 187 180 194 183 193 193 202 181 200 205 216 218 217 221 219 224 219 230 199 248 258 247 245 259 248 249 250 253 233 245 234 244 241 221 238 215 217 242 228 206 216 180 170 150 156 148 156 154 160 160 162 165 161 170 179
337 336 335 333 331 330 329 326 324 322 319 314 308 309 308 307 305 303 299 297 291 291 300 271 211 227 232 245 239 243 265 278 289 235 279 196 210 196 196 206 195 201 211 223 220 223 222 228 228 231 233 246 232 229 211 242 242 242 246 254 254 240 230 231 229 229 226 233 238 206 235 229 219 203 174 156 167 161 151 158 164 155 164 162 167 163 170 174
337 335 334 332 330 330 328 325 324 320 316 314 311 307 304 303 302 299 291 281 284 284 285 250 219 219 231 249 271 234 232 249 263 266 230 238 214 209 200 199 209 203 209 224 231 221 226 228 236 243 243 237 244 228 258 261 279 248 233 230 239 250 248 232 223 210 223 213 217 225 245 222 228 203 170 168 158 158 154 160 163 161 160 164 170 167 172 175
337 336 334 331 330 329 328 325 324 319 316 315 312 309 305 306 302 297 288 274 269 267 255 232 223 230 227 263 252 250 256 261 254 233 235 229 218 215 203 196 209 211 210 220 230 229 219 224 229 232 234 238 251 264 248 242 215 232 233 221 226 240 245 247 210 215 215 208 216 203 237 246 244 182 154 146 154 160 163 165 168 170 166 161 171 167 175 174
335 334 332 332 330 329 326 326 323 319 318 317 314 310 301 296 293 283 267 269 295 314 199 214 210 226 280 286 267 355 208 218 226 223 217 235 221 220 195 199 205 211 212 215 228 227 220 219 221 227 236 231 238 237 251 244 229 222 229 233 222 221 237 248 233 205 208 225 201 225 228 237 244 139 146 163 154 162 167 174 157 164 172 169 173 167 175 175
335 333 333 329 328 329 327 324 323 319 320 319 316 309 306 288 246 225 246 266 240 210 216 236 196 206 265 186 309 226 212 212 217 215 215 215 223 220 189 201 204 207 208 217 215 232 228 222 209 227 231 236 222 227 230 234 234 213 212 230 232 230 214 238 249 210 191 212 214 205 229 229 207 137 161 155 152 176 183 165 152 180 183 169 167 164 176 176
334 332 331 328 329 328 327 324 321 321 321 320 316 305 296 296 197 93 240 227 233 218 230 244 274 270 246 245 272 237 213 209 199 212 207 197 219 209 201 197 193 207 196 212 211 220 214 222 210 223 216 224 221 214 215 220 217 210 204 216 225 237 241 224 225 198 204 183 228 217 214 237 139 164 156 147 161 175 183 145 139 153 196 165 170 173 177 180
333 331 328 329 328 327 326 323 320 320 322 319 308 302 290 168 160 229 256 192 213 205 210 186 207 192 38 100 224 251 278 208 185 203 194 198 199 215 196 199 201 199 200 207 195 214 200 225 213 220 219 208 216 216 216 226 223 225 217 217 223 225 224 237 217 211 201 195 208 230 215 220 203 168 156 160 173 179 170 159 167 181 180 175 176 181 176 181
331 330 329 330 329 326 326 321 319 319 322 328 319 315 336 348 338 191 224 323 288 282 288 298 228 249 293 292 290 214 282 0 181 201 195 195 190 209 197 195 198 204 202 204 190 200 200 211 210 214 216 215 214 223 226 225 239 239 235 226 220 226 234 233 240 215 187 214 206 220 230 207 220 190 164 182 184 186 167 169 193 177 169 171 182 193 175 181
330 328 329 330 330 326 324 322 317 317 321 312 306 319 15 4 349 336 328 296 279 268 266 271 264 259 258 273 282 254 184 214 228 188 205 180 199 196 193 192 198 202 207 202 210 179 218 218 221 217 217 219 214 220 229 231 229 244 250 238 229 221 227 229 243 203 198 213 204 207 221 227 234 214 172 184 196 192 168 180 178 192 175 178 185 193 178 176
330 329 330 331 330 326 322 322 314 314 314 297 283 3 2 14 337 306 309 305 300 270 265 261 264 262 256 258 264 274 300 257 206 207 192 182 193 199 177 201 196 205 198 199 210 189 211 223 220 217 215 220 226 215 223 230 228 231 242 250 248 229 224 223 236 229 197 198 223 205 212 222 218 233 186 180 187 188 168 178 184 185 178 179 177 182 169 173
330 329 330 331 330 326 321 318 313 309 308 300 340 7 8 339 333 332 309 280 274 276 258 247 246 245 249 247 252 252 249 240 217 200 190 189 187 206 182 198 202 204 199 201 207 202 213 225 222 216 217 216 224 225 215 224 233 230 229 239 241 240 225 208 228 229 226 223 215 225 238 223 219 220 231 206 185 191 174 168 178 179 174 175 181 181 181 188
328 327 327 330 330 326 319 317 309 294 286 317 326 13 348 341 333 337 313 283 295 288 251 240 232 229 234 220 224 234 227 225 235 200 194 189 200 191 210 196 204 206 207 202 213 216 216 218 209 217 217 217 219 221 220 216 223 227 234 230 236 240 234 247 203 217 209 216 226 217 225 238 235 230 220 207 174 192 174 158 177 173 171 179 181 180 183 191
326 327 327 327 329 326 318 318 305 345 327 300 22 353 346 337 341 340 311 294 249 247 252 245 230 228 225 217 217 214 216 236 226 225 191 198 192 183 214 195 212 210 211 204 214 227 230 220 202 206 216 218 218 220 220 217 221 224 228 235 233 237 250 232 260 229 198 216 209 235 234 226 221 237 244 228 190 206 159 152 170 168 170 178 180 185 186 185
326 326 327 327 324 332 311 304 8 332 309 353 3 346 332 337 336 332 305 292 287 277 208 218 158 217 193 204 196 210 211 228 217 230 206 195 202 200 188 216 203 213 208 212 211 226 235 218 223 202 209 216 217 221 219 218 226 224 219 225 238 239 235 250 234 237 234 219 199 212 239 232 216 230 234 233 221 211 169 151 175 171 175 176 179 180 186 190
327 326 327 327 323 336 333 17 323 303 325 357 346 336 331 319 348 312 304 248 267 206 162 79 191 79 238 176 187 174 205 228 204 224 229 184 203 192 208 208 197 224 213 211 216 222 213 227 218 219 205 213 215 217 216 215 222 228 222 215 224 238 245 238 248 243 247 258 228 206 214 227 229 206 222 241 232 212 187 166 174 176 172 174 174 177 182 187
326 325 325 327 322 323 256 293 305 321 0 336 336 327 323 325 308 291 252 321 240 133 102 147 10 99 260 167 183 193 200 96 184 205 223 191 199 192 221 207 210 202 210 203 225 206 209 214 222 215 215 208 218 217 209 216 223 228 221 227 211 222 235 245 244 245 252 242 243 246 203 219 226 230 231 225 231 232 223 204 177 156 167 169 174 180 178 183
326 323 323 327 325 304 279 240 297 308 341 336 327 325 316 311 299 300 281 261 340 340 2 159 346 204 73 171 193 204 226 225 228 179 201 213 196 213 205 222 217 211 212 220 227 219 212 217 215 227 216 217 213 217 213 211 223 219 237 225 231 214 219 231 237 245 249 248 245 237 244 250 228 212 209 218 220 217 213 224 213 155 168 170 176 178 177 181
326 321 323 329 323 298 324 254 248 331 333 333 323 314 309 296 284 255 226 252 230 18 352 83 237 124 157 180 210 204 229 250 263 179 186 205 186 211 226 217 229 223 216 220 235 233 231 200 220 219 224 218 213 215 213 212 223 217 217 241 228 230 217 212 230 241 247 249 239 241 242 233 245 238 239 211 208 225 211 206 189 155 162 166 172 174 178 175
328 324 322 329 310 323 307 294 350 343 320 321 319 309 301 281 266 273 265 284 318 22 320 77 29 328 224 202 214 202 224 233 242 239 180 199 192 199 215 209 226 234 229 220 222 230 241 234 202 218 224 219 212 217 212 214 210 219 202 217 232 225 226 221 210 212 235 238 232 234 240 234 239 222 235 242 213 212 259 245 163 155 165 161 165 176 173 174
328 322 319 323 280 291 295 310 328 317 326 315 310 308 311 294 205 238 252 354 287 6 5 336 351 340 322 318 301 244 207 215 233 226 204 192 196 192 199 219 185 211 221 215 215 211 230 233 226 206 214 224 196 218 205 209 204 204 207 200 215 203 204 209 207 213 220 232 216 227 232 238 234 235 237 237 226 201 209 225 149 169 171 166 173 172 173 178
327 319 315 295 277 250 254 294 309 323 314 311 310 297 280 281 273 254 244 267 67 5 356 327 345 322 315 303 278 277 260 222 208 230 208 195 210 197 206 216 200 211 210 207 216 201 222 226 229 222 201 210 217 199 200 200 196 195 206 195 201 207 192 211 208 232 245 236 235 228 218 243 251 236 230 247 244 215 208 214 185 179 180 165 175 168 172 177
324 316 312 282 283 279 282 311 323 314 315 312 297 291 261 259 266 274 285 290 350 350 347 342 330 316 296 282 275 260 241 234 207 215 215 199 204 208 202 213 221 204 232 204 217 207 208 203 220 216 206 188 216 211 206 199 187 200 204 206 208 217 196 202 206 211 223 236 207 224 240 226 224 228 221 223 241 253 219 210 204 175 176 172 169 175 172 173
318 302 282 276 252 242 315 327 318 320 311 304 290 284 285 273 277 275 264 343 334 347 333 336 313 303 294 277 263 260 264 243 210 211 205 221 202 219 203 205 214 227 204 235 203 222 219 226 211 215 220 185 208 207 211 196 193 200 202 209 214 213 199 220 206 225 225 222 230 201 221 233 237 229 228 227 217 222 239 227 239 168 168 165 161 170 177 178
307 316 317 288 317 306 341 342 320 320 309 299 300 288 273 281 274 317 0 350 343 346 333 320 307 279 267 267 258 257 230 254 244 213 211 210 225 214 220 207 208 215 216 217 211 215 212 227 203 195 223 206 201 196 207 210 206 181 200 208 213 204 216 232 236 223 228 227 232 213 217 222 249 253 233 227 222 211 209 225 232 157 167 161 170 172 173 176
325 316 302 335 300 328 341 336 328 305 293 299 313 293 308 318 323 353 353 357 337 324 329 338 308 311 306 314 306 330 343 297 246 232 208 201 222 227 214 223 205 209 227 228 228 234 226 223 205 198 202 217 196 194 204 216 224 177 206 205 206 220 226 224 242 218 224 231 219 217 227 216 205 226 220 221 224 226 198 204 224 207 166 163 169 172 176 178
310 297 281 264 271 341 342 329 316 302 288 296 299 280 289 287 328 327 354 338 334 314 320 312 308 301 300 312 314 341 325 324 241 208 266 195 227 207 226 225 217 212 214 228 241 223 244 241 204 206 202 198 186 188 204 219 223 223 204 182 202 187 207 208 244 234 221 221 239 215 222 234 201 211 203 212 216 212 225 192 211 224 172 163 160 170 173 182
287 284 302 52 342 1 340 319 290 293 293 294 311 288 346 308 320 320 332 308 304 306 290 316 314 314 317 312 325 318 316 310 315 285 307 233 213 37 38 2 334 268 219 217 227 251 231 244 229 194 197 183 185 186 205 203 215 235 223 196 205 219 206 204 210 251 244 232 219 230 235 240 219 210 198 205 204 199 220 211 196 211 144 160 157 170 179 182
312 320 326 45 4 358 337 296 282 261 285 309 352 311 350 309 320 336 308 314 334 329 304 305 306 306 308 316 323 311 317 313 312 319 296 315 327 44 25 14 356 336 338 316 294 235 241 245 257 195 188 185 197 191 205 194 198 205 222 211 186 221 196 221 202 221 225 243 221 223 220 226 248 223 186 192 193 186 204 228 196 198 162 167 165 174 177 189
308 286 280 31 14 353 313 297 272 295 314 321 292 324 315 323 340 301 298 300 307 282 307 316 313 304 309 308 297 314 325 314 308 299 297 287 9 5 27 355 350 347 338 313 253 244 241 228 243 232 191 200 203 194 199 201 201 203 207 213 198 192 199 198 215 199 223 232 245 238 240 252 206 205 181 183 195 186 184 218 213 205 186 173 169 179 179 186
293 297 328 337 30 339 324 302 331 4 309 309 337 343 316 347 295 292 318 317 303 295 258 294 296 302 308 296 307 340 324 309 309 303 288 313 322 347 7 348 356 326 341 307 313 226 242 252 240 238 235 212 196 187 197 207 206 207 203 214 210 195 207 207 213 197 207 225 244 245 271 116 351 29 144 180 173 175 173 201 213 197 202 181 170 179 178 178
338 308 300 305 32 342 314 308 335 325 322 331 335 300 327 299 316 321 307 307 309 328 319 301 308 310 299 309 329 322 314 298 305 298 308 311 326 13 335 352 345 329 343 357 338 49 351 242 230 246 247 227 183 192 188 207 211 207 206 211 213 209 198 214 212 208 209 204 215 223 236 83 35 6 42 133 113 159 163 188 204 180 209 197 180 183 170 173
323 311 296 45 10 357 295 345 334 335 323 326 323 317 324 317 304 313 294 291 276 313 297 308 292 280 296 321 320 306 315 306 300 299 303 327 332 357 348 351 351 329 351 4 342 347 290 224 244 256 243 269 187 185 197 193 217 218 205 202 213 213 202 206 218 205 225 203 210 214 219 167 137 150 57 161 151 167 160 175 197 178 198 223 179 179 154 166
298 275 279 354 334 6 325 341 320 318 316 325 324 313 321 303 329 299 312 311 315 289 304 282 302 312 305 320 304 299 285 275 293 297 307 345 344 344 324 331 338 325 341 349 314 314 293 304 282 229 229 221 197 187 194 189 201 216 212 199 206 214 210 196 207 202 220 193 204 211 216 130 127 127 159 175 173 163 151 171 193 201 166 215 202 157 147 156
320 324 330 325 349 322 259 312 319 322 317 325 315 317 318 314 297 329 303 311 298 292 286 302 289 290 291 305 302 309 306 295 289 299 327 6 336 330 325 311 318 319 343 333 301 289 297 292 271 282 263 242 228 205 198 206 194 210 211 209 196 210 219 213 202 211 205 196 208 199 223 126 162 145 149 142 131 185 140 169 173 207 121 75 49 83 137 157
296 295 342 330 338 299 329 323 326 323 312 319 299 314 307 309 312 297 357 298 355 328 312 293 311 306 304 301 308 307 300 302 301 307 352 355 334 321 320 310 294 346 347 312 289 301 283 265 266 264 271 280 315 303 190 217 199 203 215 206 202 197 213 215 204 205 176 186 218 181 146 165 142 151 145 173 166 195 219 192 162 133 107 102 83 92 95 125
315 337 321 343 316 308 318 319 323 307 303 303 294 300 301 308 298 306 306 323 312 296 295 278 280 302 317 311 305 295 311 308 304 306 352 341 339 333 321 325 327 350 344 332 317 326 324 284 290 285 273 266 264 277 273 315 311 220 209 213 202 197 203 217 206 206 181 202 195 178 182 175 145 162 151 190 171 184 211 174 154 140 108 129 139 117 120 120
313 319 312 344 312 313 307 306 301 302 308 303 301 293 305 295 305 320 312 313 305 305 306 311 309 313 314 309 304 300 309 308 310 330 334 329 331 330 329 339 340 337 340 333 332 346 325 277 277 292 291 283 278 272 262 265 233 259 213 213 210 197 201 210 215 211 200 189 224 175 182 227 165 132 192 165 179 175 169 118 136 179 108 95 122 152 152 132
341 333 323 329 312 300 295 303 309 309 299 298 286 300 265 278 313 318 314 322 312 303 311 297 303 308 309 309 302 296 304 306 315 316 318 316 320 322 316 292 309 321 333 334 331 344 324 328 343 317 307 287 275 272 289 264 335 285 290 222 211 205 200 200 212 216 207 203 200 218 168 203 153 150 159 143 127 134 166 147 133 103 103 138 143 175 175 147
319 309 312 319 312 296 302 300 300 304 295 310 307 308 302 313 309 298 299 308 301 322 329 305 317 305 303 301 303 301 307 301 296 295 303 309 308 319 316 304 316 314 318 325 336 331 332 327 325 308 291 270 244 266 270 245 231 253 269 275 220 211 199 195 204 209 207 199 187 214 176 195 171 147 126 124 120 337 79 74 132 159 162 174 172 185 190 139
308 307 316 322 293 286 292 297 300 304 294 309 300 322 308 310 302 309 306 325 306 311 284 306 302 303 289 291 296 306 308 303 304 301 298 288 279 278 273 282 287 289 301 305 318 318 324 323 324 327 292 262 251 268 297 272 226 261 257 263 256 241 223 193 201 204 209 204 198 200 187 162 213 214 162 154 182 168 146 121 106 49 360 47 168 164 157 150